Vorticity
6 6 6 6 5 5 5 5 5 5 5 4 4 4 4 4 4 4 4 4 4 4 4 5 5 6 6 5 5 4 5 5 5 6 6 8 8 8 7 6 6 6 7 8 8 8 8 7 7 7 6 6 5 5 5 5 5 4 4 4 4 4 4 4 4 4 4 4 3 3 3 3 3 3 3 4 4 4 4 5 5 6 6 6 6 5 4 4 4 4 3 3 2 2 2 2 2 2 2 2 2 2 2
7 7 7 6 6 6 5 5 5 5 5 5 4 4 4 4 4 4 5 5 5 5 5 5 5 6 6 6 5 4 4 5 5 6 6 7 7 7 6 6 5 6 6 7 7 7 6 6 6 5 5 5 4 4 4 4 4 4 4 4 4 4 4 4 4 4 4 4 4 3 3 3 3 3 3 3 4 4 4 4 5 6 6 6 5 5 4 4 4 3 3 2 2 2 2 2 2 2 2 2 2 2 2
6 7 7 7 6 6 5 5 5 5 5 5 5 4 4 4 4 5 5 5 5 5 5 5 5 6 6 6 5 4 4 5 5 6 6 7 7 6 5 5 5 5 5 6 6 6 5 5 5 5 4 4 4 4 4 4 4 4 4 4 4 4 4 4 4 5 4 4 4 4 3 3 3 3 3 3 3 4 4 4 5 5 6 6 5 5 4 4 4 3 3 2 2 2 2 2 2 2 2 2 2 2 1
5 6 6 6 6 5 5 5 5 5 5 5 5 5 5 5 5 5 5 5 5 5 5 5 6 6 6 6 5 4 4 4 5 6 6 6 6 6 5 4 4 4 5 5 5 5 4 4 4 4 4 4 4 4 4 5 5 4 4 4 4 4 4 5 5 5 5 5 4 4 3 3 3 3 3 3 3 3 4 4 5 5 6 6 5 5 4 4 3 3 3 2 2 2 1 2 2 2 2 2 2 1 1
4 4 5 5 5 5 5 5 5 5 5 5 5 5 5 5 5 5 5 5 5 5 5 6 6 6 6 6 6 5 4 4 5 5 6 6 6 5 4 4 4 4 4 4 4 4 3 3 3 3 4 4 4 5 5 5 5 5 5 5 5 5 5 5 5 5 5 5 5 4 4 3 3 3 3 3 3 3 4 4 5 5 6 6 5 5 4 4 3 3 3 2 2 2 1 1 2 2 2 2 2 1 1
3 3 3 4 4 4 5 5 5 5 5 5 5 5 5 5 5 5 5 5 5 5 6 6 6 6 7 7 6 5 4 4 4 5 6 6 5 5 4 3 3 3 3 3 3 3 3 2 2 1 2 3 4 4 5 6 6 6 6 6 5 5 5 5 5 5 5 5 5 4 4 4 3 3 3 3 3 3 3 4 4 5 5 6 6 5 4 4 3 3 3 3 2 2 1 1 2 2 2 2 1 1 1
3 2 2 3 3 4 5 5 5 5 5 5 5 5 5 5 5 5 5 6 6 6 6 6 6 7 7 7 7 6 5 4 4 5 6 6 5 4 3 3 3 3 3 3 3 3 2 2 1 0 1 1 2 3 4 4 5 6 6 6 6 6 5 5 5 5 5 5 5 5 4 4 4 3 3 3 3 3 3 4 4 5 5 6 6 5 5 4 4 3 3 3 2 2 1 1 1 2 2 2 1 1 0
2 2 2 2 3 3 4 4 5 5 5 5 5 5 5 5 5 5 6 6 6 6 6 6 6 7 7 7 7 7 6 5 5 5 5 6 6 5 3 2 2 2 3 3 3 2 2 2 1 0 0 0 1 1 2 2 3 4 5 6 6 6 6 6 5 5 5 5 5 5 4 4 4 4 3 3 3 3 3 4 4 4 5 5 6 5 5 4 4 4 4 3 3 2 2 1 1 1 1 1 1 1 0
2 2 2 2 2 3 3 4 4 4 5 5 6 6 6 6 6 6 6 6 6 6 6 6 6 7 7 7 7 7 7 6 6 5 5 6 6 5 4 2 1 1 2 2 2 2 2 2 1 1 -0 0 0 0 0 1 2 2 3 4 5 6 6 6 6 6 5 5 5 5 5 4 4 4 4 4 4 4 3 4 4 4 5 5 5 5 5 5 4 4 4 4 3 2 2 2 1 1 1 1 1 0 -0
3 3 3 3 2 3 3 3 3 4 4 5 6 6 6 6 6 6 6 6 6 6 6 6 6 6 6 6 6 7 7 7 6 6 5 6 6 6 5 3 1 0 0 1 2 2 2 2 1 1 0 -0 -0 -0 -1 -0 0 1 1 2 4 5 6 6 6 6 5 5 5 5 5 4 4 4 4 4 4 4 4 4 4 4 4 5 5 5 5 5 4 4 4 4 3 3 2 2 1 1 1 1 1 0 -0
3 3 3 3 3 3 3 3 3 3 4 4 5 6 6 6 6 6 6 6 6 6 7 7 7 6 6 6 6 6 6 7 7 7 6 6 6 6 6 5 3 1 -0 -0 1 1 2 2 1 1 0 -0 -0 -1 -1 -1 -0 0 0 1 2 3 5 6 6 6 6 5 5 5 5 4 4 4 4 4 4 4 4 4 4 4 4 5 5 5 5 5 5 5 5 4 4 3 2 2 2 1 1 1 0 0 -0
3 3 4 3 3 4 4 3 3 3 3 4 4 5 6 6 6 6 6 6 6 6 7 7 7 6 6 6 5 5 6 7 7 7 7 6 6 6 6 6 5 3 1 -0 -0 -0 0 1 1 1 0 0 -0 -0 -1 -1 -1 -0 0 0 1 2 4 5 6 7 6 6 5 5 5 5 5 4 4 4 4 4 4 4 4 4 4 4 5 5 5 5 5 5 5 4 4 3 2 2 2 1 1 1 0 0 -0
3 3 4 3 3 4 4 4 3 3 3 3 3 4 5 6 6 6 6 6 6 6 6 6 6 6 6 6 5 5 5 6 7 7 7 6 6 5 6 6 6 6 4 2 0 -0 -1 -0 -0 -0 0 0 0 0 -0 -1 -1 -0 0 1 1 2 3 4 5 6 7 6 6 6 5 5 5 4 4 4 4 4 4 4 4 4 4 4 4 5 5 5 5 5 5 5 4 3 3 2 2 2 1 1 0 0 -0
3 3 3 3 3 3 4 3 3 4 4 3 3 3 4 5 5 6 6 6 6 6 6 6 6 6 6 5 5 5 5 6 6 7 7 6 6 5 5 6 6 7 6 5 3 2 0 -0 -1 -1 -0 -0 0 0 0 0 0 1 1 1 2 2 3 4 5 6 7 7 6 6 6 5 5 5 4 4 4 4 4 4 4 4 4 4 4 4 5 5 5 5 5 5 4 3 3 2 2 2 2 1 1 0 0
3 3 3 3 3 3 3 3 3 3 4 4 3 3 3 3 4 4 5 5 5 5 5 6 6 6 5 5 5 5 5 5 6 7 7 7 6 5 5 5 6 7 8 7 6 5 3 1 0 -0 -0 -0 -0 0 1 1 1 2 2 2 3 3 4 4 5 5 6 7 7 7 6 6 5 5 5 4 4 4 4 4 4 4 4 4 4 4 4 5 5 5 5 5 4 4 3 3 2 2 2 2 1 1 1
3 3 3 3 3 3 3 2 2 3 5 4 4 3 2 2 2 3 4 5 5 5 5 5 5 5 5 5 5 5 5 5 6 6 7 7 6 6 5 5 5 6 7 8 8 8 6 5 3 2 1 1 0 1 1 2 2 2 2 3 3 4 4 4 5 5 6 6 7 7 7 6 6 5 5 5 4 4 4 4 4 4 4 4 4 4 4 4 5 5 5 4 4 4 3 3 3 2 2 2 2 2 1
3 3 3 3 3 3 3 3 2 2 4 4 4 3 2 2 2 2 3 4 5 5 5 5 5 4 4 5 5 5 5 5 5 6 7 7 6 6 5 5 5 5 6 8 8 9 8 7 6 5 4 3 2 2 2 2 3 3 3 3 4 4 4 4 5 5 5 5 6 7 7 7 6 6 5 5 4 4 4 4 4 4 4 4 4 4 4 4 4 4 4 4 4 4 3 3 3 3 3 2 2 2 2
3 3 3 3 3 3 3 3 2 1 2 3 4 4 3 2 2 2 2 4 4 5 5 4 4 4 4 4 4 4 4 4 5 6 6 7 6 6 6 5 5 5 6 7 8 8 9 9 8 7 6 5 4 4 4 4 4 4 4 4 4 4 5 4 4 4 4 5 5 6 7 7 7 6 6 5 5 4 4 4 4 4 4 4 4 4 4 4 4 4 4 4 4 4 3 3 3 3 3 2 2 2 2
3 3 3 3 3 3 3 3 2 2 1 2 3 4 4 3 2 2 2 3 4 5 5 4 4 4 4 4 4 4 4 4 4 5 6 6 7 6 6 5 5 5 5 6 7 7 8 8 8 8 8 7 6 6 6 6 6 6 5 5 5 5 5 4 4 4 4 4 4 5 6 6 7 6 6 6 5 5 5 4 4 4 4 4 4 4 4 4 4 4 4 4 4 4 3 3 3 3 3 3 2 2 2
3 3 3 3 3 3 3 3 3 2 1 1 2 3 4 3 3 2 3 3 4 4 5 4 4 4 4 4 4 4 4 3 3 4 5 6 6 7 6 6 6 5 5 5 6 6 7 7 7 8 8 7 7 7 7 7 7 7 6 6 5 5 5 5 4 4 3 3 4 4 5 6 6 6 6 6 6 5 5 5 4 4 4 4 4 4 4 4 4 4 4 4 4 4 4 3 3 3 3 3 2 2 2
3 3 3 2 3 3 3 3 3 3 2 1 2 2 3 4 3 3 3 3 4 4 5 5 4 4 4 4 4 4 3 3 3 3 4 5 6 6 7 6 6 6 5 5 5 6 6 6 6 7 7 7 6 6 7 7 7 7 6 6 6 5 5 5 4 4 4 4 4 4 4 5 6 6 6 6 6 6 5 5 5 4 4 4 4 4 4 4 4 4 4 4 4 4 4 4 4 4 3 3 3 2 2
4 3 3 2 2 2 3 3 3 3 3 2 2 2 3 3 4 3 3 3 3 4 4 5 5 5 4 4 4 4 3 3 3 2 3 4 5 6 6 7 7 6 6 6 5 5 5 5 5 6 6 6 5 5 6 6 6 6 6 6 6 5 5 5 5 4 4 4 4 4 4 4 5 5 6 6 6 6 6 5 5 5 4 4 4 4 4 4 4 4 4 4 4 4 4 4 4 4 4 3 3 2 2
4 4 4 3 2 2 2 2 2 3 3 2 2 2 2 2 3 4 3 2 2 3 3 4 5 5 5 5 4 4 4 3 3 2 2 3 3 4 5 6 6 6 6 6 6 6 5 5 5 5 5 5 5 4 5 5 5 6 5 5 5 5 5 5 5 4 4 4 4 4 4 4 4 5 5 5 6 6 6 5 5 5 5 5 4 4 4 4 4 4 4 4 4 4 4 4 4 4 4 4 3 3 2
4 5 4 4 3 2 2 2 2 2 2 3 2 2 2 2 2 3 3 2 2 2 2 3 4 4 5 5 5 5 5 4 3 3 2 2 2 3 4 5 5 6 6 6 6 6 6 6 5 5 5 5 4 4 4 4 4 4 5 5 5 5 5 4 4 4 4 4 4 4 4 4 4 4 4 5 5 5 5 5 5 5 5 5 5 5 5 5 5 5 5 5 5 5 5 5 5 5 5 4 4 3 3
4 4 5 4 4 3 2 2 2 2 2 2 2 2 2 2 2 2 3 2 2 1 1 2 3 4 4 5 5 5 5 5 4 3 3 2 2 2 3 3 4 5 5 6 6 6 6 6 6 6 5 5 4 4 4 4 4 4 4 4 4 4 4 4 4 4 4 4 4 4 4 4 4 4 4 4 4 5 5 5 5 5 5 5 5 5 5 5 5 5 5 5 5 5 5 5 5 5 5 4 4 4 3
2 3 4 5 4 4 4 3 3 2 2 2 2 2 2 1 1 2 2 2 2 1 0 0 1 2 3 4 4 5 5 5 5 4 3 3 2 2 2 2 3 4 4 5 5 5 6 6 6 6 6 6 5 5 4 4 4 4 4 4 4 4 4 4 4 4 4 4 4 4 4 4 3 3 4 4 4 4 5 5 5 5 5 5 5 5 5 6 6 6 6 6 6 6 6 5 5 5 5 5 4 4 3
-0 1 3 4 4 4 5 5 4 3 2 2 2 2 2 2 1 1 2 2 2 1 0 0 0 1 2 3 3 4 5 5 5 5 5 4 3 2 2 2 2 2 3 4 4 4 5 5 5 6 6 6 6 5 5 5 4 4 4 4 4 4 4 3 4 4 4 4 4 4 3 3 3 3 3 4 4 4 4 5 5 5 5 5 5 5 6 6 6 6 6 6 6 6 6 6 5 5 5 5 4 4 4
-3 -1 1 2 3 4 5 5 5 5 4 3 3 2 2 2 1 1 1 1 1 1 1 0 -0 -0 0 1 2 3 3 4 5 5 5 5 4 3 3 2 2 2 2 3 3 3 4 4 4 5 5 6 6 6 6 5 5 5 5 4 4 4 4 4 3 3 3 3 3 3 3 3 3 3 3 3 4 4 4 5 5 5 5 5 5 6 6 6 6 6 6 6 6 6 6 6 5 5 5 5 5 4 4
-3 -3 -2 -0 1 2 4 4 5 6 5 5 4 3 3 2 1 1 1 1 1 1 1 1 0 -0 -1 0 1 1 2 2 3 4 5 5 5 5 4 3 2 1 2 2 3 3 3 3 3 4 4 5 5 5 6 6 6 6 6 5 5 5 4 4 4 4 4 3 3 3 3 3 3 2 3 3 3 4 4 5 5 5 6 6 6 6 6 6 6 6 6 6 6 6 6 6 5 5 5 5 5 5 4
-1 -2 -3 -3 -1 -0 1 3 4 5 5 6 5 5 4 3 2 2 1 1 1 1 1 1 1 0 -1 -0 -0 0 1 1 1 2 3 4 5 6 6 4 3 2 1 2 2 3 3 3 3 3 3 3 4 5 5 5 5 6 6 6 6 5 5 5 5 4 4 4 4 3 3 3 3 3 3 3 3 4 4 5 5 5 6 6 6 6 6 6 6 6 6 6 6 6 6 6 5 5 5 5 5 5 4
4 1 -2 -2 -2 -2 -2 -1 1 2 3 5 5 5 5 5 4 3 3 2 1 1 1 2 2 1 0 -0 -0 -0 0 -0 -0 0 1 2 4 5 6 6 5 4 2 1 2 2 3 3 3 3 2 2 3 4 4 5 5 5 5 6 6 6 6 5 5 5 5 5 4 4 4 4 4 4 3 3 3 4 4 5 5 5 6 6 6 6 6 6 6 6 6 6 6 6 6 6 6 6 6 6 5 5 4
14 8 4 2 1 -0 -2 -3 -2 -1 -0 2 3 4 5 5 5 5 4 3 2 2 1 2 2 2 2 1 0 0 0 -1 -1 -1 -1 0 1 3 5 6 6 5 4 2 2 2 3 4 4 4 3 2 2 3 4 4 5 4 4 5 5 5 5 5 5 5 5 5 5 5 5 5 5 4 4 4 4 4 4 5 5 6 6 6 7 7 7 7 6 6 6 6 6 6 6 6 6 6 6 6 5 4 4
24 20 14 7 5 3 1 -1 -3 -3 -3 -2 -0 1 3 4 5 5 5 4 4 3 2 2 2 3 2 2 1 1 1 0 -1 -1 -1 -1 -1 0 2 4 5 6 5 4 3 2 2 3 4 4 4 3 2 3 4 4 4 4 4 4 4 5 5 5 5 5 5 5 5 5 5 5 5 5 5 5 5 5 5 5 5 6 6 6 6 7 7 7 7 7 7 6 6 6 6 6 6 6 6 6 5 4 3
25 26 24 17 13 11 8 5 2 -1 -3 -3 -3 -1 0 2 3 4 4 4 4 3 3 3 2 2 2 2 2 2 2 1 0 -0 -1 -2 -2 -1 -0 1 3 4 5 4 3 3 2 3 3 4 4 4 3 3 3 4 4 4 4 4 4 4 5 5 5 4 4 4 4 4 5 5 5 5 5 5 5 5 5 5 5 6 6 6 6 6 7 7 7 7 7 7 6 6 6 6 6 6 6 5 4 4 3
14 19 23 21 20 18 18 14 9 5 2 -1 -2 -3 -2 -1 0 1 2 3 3 3 3 3 3 2 2 2 2 2 2 2 1 1 0 -1 -1 -2 -2 -1 1 2 3 4 3 3 2 2 3 3 4 4 4 3 4 4 4 5 4 4 4 4 4 4 4 4 4 4 4 4 4 4 5 5 5 5 5 5 5 5 5 6 6 6 6 6 6 6 6 6 6 6 6 6 6 6 6 5 5 4 4 4 3
6 8 13 17 18 19 21 20 17 14 10 5 1 -2 -3 -2 -2 -1 -1 -0 0 1 2 2 2 2 2 2 2 2 2 2 2 2 1 1 -0 -1 -2 -2 -1 -0 1 2 3 3 2 2 2 3 3 4 4 3 3 4 4 5 5 4 4 4 4 4 4 4 4 4 4 4 4 4 4 5 5 5 5 5 5 5 5 6 6 6 6 6 6 6 6 6 6 6 5 5 5 5 5 4 4 4 4 4 3
9 6 5 9 12 15 17 18 19 20 19 15 10 5 1 -1 -2 -2 -2 -2 -2 -1 -1 0 1 2 3 3 3 3 3 2 2 2 2 2 1 1 -1 -2 -2 -1 -1 1 2 2 2 2 2 2 2 3 3 3 3 3 4 5 5 5 4 4 4 4 4 4 4 4 4 4 4 4 4 5 5 5 4 4 5 5 5 5 6 6 5 5 5 5 5 4 4 4 4 4 4 4 4 4 4 4 4 4 4
14 9 3 4 7 10 11 12 15 18 22 24 22 18 11 5 1 -0 -0 0 -1 -1 -2 -1 -0 2 4 5 5 5 4 3 3 2 2 2 2 2 1 -0 -1 -2 -1 -1 0 1 2 2 2 2 2 2 2 2 2 2 3 4 5 5 4 4 3 4 4 4 4 4 4 4 4 4 4 5 5 5 5 5 5 5 5 5 5 5 5 5 5 4 4 4 3 3 3 2 2 2 2 3 3 3 4 4 4
4 5 3 3 4 6 8 10 12 13 15 20 24 26 23 16 10 6 4 4 4 2 1 -0 -1 0 4 5 5 5 5 5 5 4 3 3 3 3 2 1 0 -1 -1 -1 -0 1 1 2 2 2 2 2 2 1 1 1 2 3 4 4 4 4 3 3 4 4 4 4 4 4 4 5 5 5 5 5 5 5 5 5 5 5 5 5 5 5 4 4 4 3 3 2 2 1 1 1 2 2 2 3 3 4 4
-10 -3 1 2 4 5 7 9 11 12 13 14 17 21 24 22 18 13 10 9 8 8 7 4 2 1 1 2 3 4 5 5 6 6 5 4 4 4 4 3 3 2 0 -1 -0 0 1 1 2 2 2 2 1 0 0 -0 0 1 2 3 3 3 3 3 3 3 4 4 4 4 4 4 5 5 5 5 5 5 5 5 5 5 5 5 5 5 4 4 4 3 2 2 1 1 1 1 1 2 2 3 3 4 4
-4 -3 1 3 4 5 6 8 10 12 13 12 13 15 19 20 20 18 16 13 12 11 12 10 8 4 1 -0 -0 1 2 4 5 6 7 6 6 5 5 4 5 5 4 1 -0 -0 0 1 2 2 2 1 1 0 -0 -1 -1 -0 1 2 2 3 3 3 3 3 3 4 4 4 4 4 4 5 5 5 6 6 6 5 5 5 5 5 5 5 4 4 3 3 2 2 2 1 1 1 1 2 3 3 4 4 4
6 5 8 7 5 5 7 7 9 11 12 11 11 11 14 16 19 20 19 17 14 12 13 14 13 10 6 3 2 0 -0 0 2 3 5 6 7 6 6 4 4 6 9 6 2 0 -1 0 1 2 2 1 1 0 -0 -1 -2 -1 -0 1 2 2 2 2 2 3 3 3 4 4 4 4 4 4 5 5 5 6 6 6 6 6 5 5 5 5 4 4 3 3 2 2 2 2 2 2 2 3 3 4 4 4 4
7 8 10 9 7 5 6 7 8 9 12 11 10 10 10 13 17 20 20 18 14 11 10 12 13 13 11 9 7 6 3 1 -0 -0 1 3 5 6 6 4 3 4 8 9 7 3 0 0 1 1 2 2 1 1 0 -1 -1 -2 -1 -0 1 2 2 2 2 2 3 3 4 4 4 4 4 4 4 5 5 6 6 6 6 6 6 5 5 4 4 4 3 3 3 2 2 2 2 3 3 3 4 4 4 4 4
2 4 6 8 7 5 4 6 8 10 11 12 11 10 8 9 12 15 17 15 12 9 6 9 11 12 13 11 10 9 9 6 3 1 -1 -0 1 3 5 5 3 1 3 9 10 7 3 1 1 1 2 2 2 2 1 0 -1 -2 -2 -1 -0 1 2 2 2 2 2 3 3 3 4 4 4 4 4 4 5 5 6 6 6 6 6 5 5 5 4 4 3 3 3 3 3 3 3 3 4 4 4 4 4 4 4
1 1 2 4 5 6 5 5 7 9 11 10 10 10 10 10 10 11 13 13 10 7 5 10 13 13 14 12 11 10 11 11 9 6 2 -0 -1 0 2 4 3 2 1 6 9 9 7 4 2 1 1 1 2 2 2 1 0 -1 -2 -2 -1 0 1 2 2 2 2 2 2 3 3 3 4 4 4 4 4 5 5 6 6 6 6 6 5 5 5 4 4 4 4 4 4 4 4 4 4 5 5 4 4 4 5
1 1 1 2 4 5 5 5 5 5 7 7 7 8 9 13 16 18 19 17 13 8 8 16 19 19 16 12 9 8 11 12 12 12 9 4 1 0 1 3 3 3 1 3 6 9 9 6 4 2 1 1 1 1 2 2 1 0 -1 -2 -2 -1 -0 1 2 2 2 1 1 2 2 3 3 3 3 4 4 4 5 5 6 6 6 6 6 5 5 5 5 5 4 4 4 5 5 5 5 5 4 4 4 5 5
2 1 1 2 2 3 4 4 4 3 2 3 4 5 6 9 14 19 24 25 23 19 16 20 22 21 15 11 7 5 8 11 12 13 14 11 7 3 -0 0 1 2 2 2 4 6 8 7 6 4 3 1 0 -0 1 1 2 1 0 -1 -1 -2 -2 -1 0 1 1 1 1 1 1 1 2 2 3 3 4 4 4 5 5 5 6 6 6 6 6 6 5 5 5 5 5 5 5 5 5 5 4 5 5 5 5
2 2 2 2 2 3 3 3 3 2 2 2 2 2 3 2 3 6 11 18 24 28 28 27 24 19 11 10 8 7 11 14 16 16 17 17 14 9 3 -1 -1 -0 1 2 3 4 6 7 7 6 5 4 2 0 -0 1 1 1 1 0 -0 -1 -1 -1 -1 -0 0 1 1 0 -0 0 1 1 2 3 3 4 4 4 5 5 5 5 5 6 6 6 6 6 5 5 5 6 6 6 5 5 5 6 6 6 6
3 3 2 2 2 2 3 3 2 2 2 3 2 1 -0 -2 -4 -7 -7 -2 9 21 29 30 27 20 14 13 14 17 21 23 25 25 24 24 22 18 11 5 1 -1 -2 -1 -0 1 4 7 8 9 8 7 5 4 2 2 2 2 1 1 1 0 -0 -0 -1 -1 0 1 1 1 0 -0 0 0 1 2 2 3 4 4 4 4 4 4 5 5 5 6 6 6 6 5 5 5 5 5 5 6 6 6 7 6 6
4 3 3 2 2 2 2 3 3 2 2 2 3 2 2 2 1 -2 -5 -9 -9 -4 5 13 15 14 13 12 13 16 21 25 28 29 28 28 27 24 18 12 6 2 -1 -2 -3 -3 -1 3 7 9 9 9 8 7 5 4 4 4 4 3 2 1 1 1 0 -0 0 2 2 3 2 1 0 0 0 1 1 2 2 3 4 4 4 4 4 4 4 5 5 5 5 5 5 5 5 5 5 5 5 5 5 6 6
5 4 3 3 2 2 2 2 3 3 2 2 2 3 3 5 6 6 3 -3 -9 -13 -15 -10 -5 -0 3 4 6 8 11 16 20 23 25 25 24 22 19 15 12 10 9 5 2 -2 -6 -4 0 5 6 6 5 5 5 5 6 6 6 5 5 4 3 2 2 1 1 2 3 3 4 3 2 1 1 1 1 1 1 2 2 3 3 3 3 3 4 4 4 5 5 5 5 5 5 4 4 4 4 4 4 5 6
6 5 4 4 3 2 2 2 2 2 2 2 2 2 2 4 6 7 7 5 1 -5 -10 -11 -9 -6 -2 -1 1 2 5 7 11 15 20 24 25 23 17 13 14 18 23 21 16 9 2 -4 -5 -2 0 -1 -0 2 4 5 6 6 6 6 6 6 5 4 4 3 3 3 3 4 4 4 3 2 2 1 1 0 -0 0 1 1 2 3 3 3 3 3 4 4 5 5 5 5 4 4 4 3 3 3 3 4 5
8 7 6 5 4 3 2 2 2 2 2 2 2 2 1 2 3 4 5 6 5 3 -0 -1 -1 -0 1 1 1 1 3 4 5 7 10 15 18 18 15 12 13 17 26 32 30 25 17 8 2 -1 -1 -3 -3 -1 4 9 9 8 5 5 6 6 6 6 6 6 6 5 4 4 4 5 4 3 1 1 1 1 1 -0 -0 -0 0 1 2 2 3 3 3 4 4 4 4 4 4 4 4 4 4 4 4 4 5
9 8 7 6 6 5 4 3 2 2 2 2 2 2 1 1 1 2 2 3 4 4 4 4 4 4 4 3 2 2 2 1 1 2 4 6 8 9 9 9 10 13 20 27 32 33 31 22 13 6 3 0 -1 -2 -0 10 14 13 6 4 3 3 4 4 4 5 6 6 5 4 3 4 3 2 -0 -0 0 1 1 1 -0 -1 -1 -0 1 1 2 2 3 3 3 3 4 4 4 4 4 4 4 4 4 4 4
10 9 9 8 7 6 5 4 3 3 2 2 2 2 2 2 2 1 1 1 2 2 3 3 4 4 3 3 2 2 1 1 1 1 3 4 5 6 7 9 12 15 18 21 25 29 32 30 24 16 10 6 2 -1 -4 2 8 11 6 3 1 0 1 1 2 3 4 5 5 5 3 2 1 1 0 -1 -1 -1 -0 0 -0 -1 -1 -1 -0 1 1 2 2 2 3 3 3 3 3 3 3 4 4 4 4 3 2
11 10 10 9 8 8 7 6 5 4 3 3 3 2 2 2 2 2 2 1 1 1 1 1 2 2 2 2 2 2 2 2 2 1 2 3 5 8 11 15 19 21 20 20 22 25 29 30 28 24 18 13 8 4 -0 -3 -1 1 1 -0 -1 -1 -1 -0 0 1 2 3 4 5 4 3 3 4 5 4 2 0 -1 -1 -1 -1 -0 0 0 1 1 1 2 2 2 2 2 3 3 3 3 3 3 4 4 3 3
11 11 11 10 10 9 8 7 6 6 5 4 3 3 3 2 2 2 2 2 2 1 1 1 1 1 1 1 1 1 1 1 2 1 0 1 4 8 15 19 19 19 19 19 20 22 25 26 27 27 26 21 16 11 7 3 -1 -3 -3 -2 -1 -0 0 1 1 2 3 4 5 5 5 6 6 7 8 14 15 12 6 2 0 -0 0 2 2 2 2 1 1 1 1 1 2 2 2 2 2 2 3 3 3 3 2
11 12 12 12 11 11 10 9 8 7 7 6 5 4 3 3 3 3 3 3 3 2 2 1 1 1 1 1 1 1 1 1 1 1 0 0 4 9 15 15 12 10 12 14 13 11 11 15 19 23 28 26 23 19 15 12 7 4 1 3 4 5 5 4 4 4 5 6 7 7 6 8 7 4 -0 17 29 33 27 16 8 3 1 3 4 4 3 2 1 0 0 0 1 1 2 2 2 2 2 2 2 2 2
8 10 11 12 12 12 12 11 10 9 9 8 7 6 4 4 3 3 3 3 3 3 3 2 2 1 1 1 1 1 1 1 1 0 0 1 4 9 14 10 4 1 4 6 5 3 2 4 9 15 21 26 27 26 24 23 23 22 21 21 21 19 17 14 11 9 8 8 9 9 8 7 6 1 -13 -5 13 33 46 36 22 9 4 4 5 6 5 3 2 1 0 0 0 1 1 2 2 2 2 2 2 1 1
6 7 8 10 12 13 13 12 12 11 10 9 8 7 6 5 4 4 3 3 3 3 3 3 3 2 2 1 1 1 1 1 1 0 -0 1 5 9 14 8 -0 -4 -1 0 -1 -2 -1 2 5 8 12 18 24 27 28 29 32 38 44 45 43 38 33 26 21 16 12 11 11 11 11 8 6 3 -5 -19 -14 8 44 50 39 21 10 8 8 8 6 4 2 2 1 1 1 2 2 2 2 2 2 2 1 1 1
4 4 5 7 9 10 12 12 12 11 11 10 9 8 8 7 6 5 4 4 4 4 4 3 3 3 2 2 2 2 1 1 1 1 0 1 4 8 13 11 2 -5 -5 -3 -4 -4 -2 1 4 6 8 11 15 18 20 16 18 25 37 45 46 44 40 35 29 24 19 15 14 14 15 11 8 6 5 -7 -13 -5 28 49 46 33 20 16 14 11 8 5 4 4 5 5 6 5 4 2 2 2 2 2 1 1 1
Height
5873 5873 5874 5875 5875 5876 5876 5876 5876 5877 5877 5878 5878 5879 5879 5879 5879 5880 5880 5880 5880 5880 5880 5880 5881 5881 5881 5881 5881 5881 5881 5881 5881 5881 5882 5882 5882 5882 5882 5882 5882 5882 5883 5883 5883 5883 5884 5884 5884 5884 5884 5884 5884 5884 5884 5884 5884 5884 5884 5884 5884 5884 5884 5884 5884 5884 5884 5884 5884 5884 5884 5884 5883 5883 5883 5883 5883 5883 5883 5883 5882 5882 5882 5882 5882 5882 5882 5882 5882 5881 5881 5881 5881 5880 5880 5879 5879 5878 5878 5877 5877 5876 5876
5872 5872 5873 5873 5874 5875 5875 5875 5875 5876 5876 5877 5878 5878 5878 5878 5878 5879 5879 5879 5879 5879 5880 5880 5880 5880 5880 5881 5881 5881 5881 5881 5881 5881 5881 5881 5881 5881 5882 5882 5882 5882 5882 5882 5883 5883 5883 5883 5884 5884 5884 5884 5883 5883 5884 5884 5884 5884 5884 5884 5884 5884 5884 5884 5884 5884 5884 5884 5883 5883 5883 5883 5883 5883 5883 5883 5883 5882 5882 5882 5882 5882 5882 5882 5882 5882 5881 5881 5881 5881 5881 5881 5880 5880 5879 5879 5878 5878 5877 5877 5876 5876 5876
5871 5871 5871 5872 5873 5873 5873 5874 5874 5874 5875 5876 5876 5877 5877 5877 5878 5878 5878 5878 5878 5879 5879 5879 5879 5879 5880 5880 5880 5880 5880 5881 5881 5881 5881 5881 5881 5881 5881 5881 5882 5882 5882 5882 5882 5882 5883 5883 5883 5883 5883 5883 5883 5883 5883 5884 5884 5884 5883 5883 5883 5883 5883 5883 5883 5883 5883 5883 5883 5883 5883 5882 5882 5882 5882 5882 5882 5882 5882 5882 5882 5881 5881 5881 5881 5881 5881 5881 5881 5881 5880 5880 5880 5879 5879 5878 5878 5877 5877 5876 5876 5875 5875
5869 5870 5870 5871 5871 5872 5872 5872 5873 5873 5874 5874 5875 5876 5876 5876 5877 5877 5877 5877 5877 5878 5878 5878 5878 5878 5879 5879 5879 5880 5880 5880 5880 5880 5880 5880 5881 5881 5881 5881 5881 5881 5881 5881 5881 5882 5882 5882 5883 5883 5883 5882 5882 5883 5883 5883 5883 5883 5883 5883 5883 5883 5883 5883 5883 5883 5883 5882 5882 5882 5882 5882 5882 5882 5882 5881 5881 5881 5881 5881 5881 5881 5881 5881 5881 5881 5881 5881 5880 5880 5880 5880 5879 5879 5878 5878 5877 5877 5876 5876 5875 5875 5874
5868 5868 5869 5870 5870 5871 5871 5871 5872 5872 5873 5873 5874 5874 5875 5875 5876 5876 5876 5876 5876 5877 5877 5877 5877 5878 5878 5878 5878 5879 5879 5879 5879 5880 5880 5880 5880 5880 5881 5881 5881 5881 5881 5881 5881 5881 5881 5882 5882 5882 5882 5882 5882 5882 5882 5882 5882 5882 5882 5882 5882 5882 5882 5882 5882 5882 5882 5882 5882 5882 5882 5881 5881 5881 5881 5881 5881 5881 5881 5881 5881 5881 5881 5880 5880 5880 5880 5880 5880 5880 5879 5879 5879 5878 5878 5877 5877 5876 5876 5875 5875 5874 5874
5866 5867 5868 5868 5869 5870 5870 5870 5871 5871 5871 5872 5872 5873 5874 5874 5875 5875 5875 5876 5876 5876 5876 5876 5876 5877 5877 5877 5877 5878 5878 5879 5879 5879 5879 5879 5879 5880 5880 5880 5880 5880 5881 5881 5881 5881 5881 5881 5881 5882 5882 5881 5881 5881 5882 5882 5882 5882 5882 5882 5882 5882 5882 5882 5881 5881 5881 5881 5881 5881 5881 5881 5881 5881 5881 5880 5880 5880 5880 5880 5880 5880 5880 5880 5879 5879 5879 5879 5879 5879 5879 5879 5878 5878 5877 5877 5876 5876 5875 5875 5874 5874 5873
5865 5866 5866 5867 5868 5868 5869 5869 5870 5870 5870 5871 5871 5872 5872 5873 5873 5874 5874 5874 5875 5875 5875 5875 5876 5876 5876 5876 5876 5877 5877 5878 5878 5878 5878 5879 5879 5879 5879 5880 5880 5880 5880 5880 5880 5880 5881 5881 5881 5881 5881 5881 5881 5881 5881 5881 5881 5881 5881 5881 5881 5881 5881 5881 5881 5881 5881 5881 5881 5881 5881 5880 5880 5880 5880 5880 5880 5880 5880 5880 5879 5879 5879 5879 5879 5879 5879 5878 5878 5878 5878 5878 5878 5877 5877 5876 5876 5876 5875 5874 5874 5873 5873
5863 5864 5865 5866 5866 5867 5867 5868 5868 5869 5869 5870 5870 5871 5871 5872 5872 5873 5873 5873 5873 5874 5874 5874 5875 5875 5875 5875 5876 5876 5876 5877 5877 5877 5878 5878 5878 5878 5878 5879 5879 5879 5879 5879 5880 5880 5880 5880 5880 5880 5880 5880 5880 5880 5881 5881 5881 5881 5881 5881 5881 5881 5881 5881 5881 5881 5880 5880 5880 5880 5880 5880 5880 5879 5879 5879 5879 5879 5879 5879 5879 5879 5878 5878 5878 5878 5878 5878 5878 5878 5877 5877 5877 5877 5876 5876 5876 5875 5874 5874 5873 5873 5872
5861 5862 5863 5864 5865 5866 5866 5866 5867 5867 5868 5868 5869 5869 5870 5871 5871 5871 5872 5872 5872 5873 5873 5873 5873 5874 5874 5874 5875 5875 5875 5876 5876 5876 5877 5877 5877 5877 5878 5878 5878 5878 5879 5879 5879 5879 5879 5879 5879 5880 5880 5879 5879 5879 5880 5880 5880 5880 5880 5880 5880 5880 5880 5880 5880 5880 5880 5879 5879 5879 5879 5879 5879 5879 5879 5878 5878 5878 5878 5878 5878 5878 5878 5878 5877 5877 5877 5877 5877 5877 5877 5876 5876 5876 5876 5875 5875 5874 5874 5873 5873 5872 5871
5860 5861 5861 5862 5863 5864 5865 5865 5866 5866 5866 5867 5867 5868 5869 5869 5870 5870 5871 5871 5871 5871 5872 5872 5872 5873 5873 5873 5874 5874 5874 5875 5875 5876 5876 5876 5876 5876 5877 5877 5877 5878 5878 5878 5878 5878 5878 5879 5879 5879 5879 5879 5878 5879 5879 5879 5879 5879 5879 5879 5879 5879 5879 5879 5879 5879 5879 5878 5879 5879 5879 5878 5878 5878 5878 5878 5878 5877 5877 5877 5877 5877 5877 5877 5877 5877 5876 5876 5876 5876 5876 5876 5876 5876 5875 5875 5874 5874 5873 5873 5872 5871 5871
5858 5859 5860 5861 5861 5862 5863 5864 5864 5865 5865 5866 5866 5867 5867 5868 5868 5869 5869 5870 5870 5870 5871 5871 5871 5871 5872 5872 5872 5873 5873 5874 5874 5874 5875 5875 5876 5876 5876 5876 5876 5877 5877 5877 5877 5877 5878 5878 5878 5878 5878 5878 5878 5878 5878 5878 5878 5878 5878 5878 5879 5879 5879 5878 5878 5878 5878 5878 5878 5878 5877 5877 5877 5877 5877 5877 5877 5877 5877 5876 5876 5876 5876 5876 5876 5876 5876 5876 5876 5876 5876 5875 5875 5875 5875 5874 5874 5873 5873 5872 5871 5871 5870
5857 5857 5858 5859 5860 5861 5861 5862 5863 5863 5864 5864 5865 5865 5866 5866 5867 5867 5868 5868 5869 5869 5869 5870 5870 5870 5871 5871 5871 5871 5872 5872 5873 5873 5874 5874 5874 5875 5875 5875 5876 5876 5876 5876 5876 5877 5877 5877 5877 5877 5877 5877 5877 5877 5877 5877 5877 5877 5878 5878 5878 5878 5878 5878 5878 5877 5877 5877 5877 5877 5877 5877 5876 5876 5876 5876 5876 5876 5876 5876 5876 5876 5875 5875 5875 5875 5875 5875 5875 5875 5875 5875 5874 5874 5874 5873 5873 5872 5872 5871 5871 5870 5870
5856 5856 5856 5857 5858 5859 5860 5860 5861 5862 5862 5863 5863 5864 5865 5865 5866 5866 5867 5867 5868 5868 5868 5869 5869 5869 5869 5870 5870 5870 5871 5871 5871 5872 5872 5873 5873 5873 5874 5874 5874 5875 5875 5875 5876 5876 5876 5876 5876 5876 5876 5876 5876 5876 5876 5876 5877 5877 5877 5877 5877 5877 5877 5877 5877 5877 5876 5876 5876 5876 5876 5876 5876 5876 5875 5875 5875 5875 5875 5875 5875 5875 5875 5874 5874 5874 5874 5874 5874 5874 5874 5874 5873 5873 5873 5872 5872 5872 5871 5871 5870 5870 5869
5854 5855 5855 5856 5856 5857 5858 5858 5859 5860 5861 5861 5862 5862 5863 5864 5864 5865 5865 5866 5866 5867 5867 5867 5867 5868 5868 5868 5869 5869 5870 5870 5870 5871 5871 5871 5872 5872 5873 5873 5873 5874 5874 5874 5875 5875 5875 5875 5875 5875 5875 5876 5875 5875 5875 5876 5876 5876 5876 5876 5876 5876 5876 5876 5876 5876 5876 5875 5875 5875 5875 5875 5875 5875 5875 5874 5874 5874 5874 5874 5874 5874 5874 5873 5873 5873 5873 5873 5873 5873 5873 5873 5872 5872 5872 5872 5871 5871 5870 5870 5869 5869 5868
5851 5852 5854 5854 5854 5856 5857 5857 5858 5858 5859 5860 5860 5861 5861 5862 5863 5863 5864 5865 5865 5865 5866 5866 5866 5866 5867 5867 5867 5868 5868 5869 5869 5869 5870 5870 5871 5871 5871 5872 5872 5872 5873 5873 5873 5874 5874 5874 5874 5874 5874 5875 5874 5874 5874 5875 5875 5875 5875 5875 5875 5875 5875 5875 5875 5875 5875 5874 5874 5874 5874 5874 5874 5874 5874 5873 5873 5873 5873 5873 5873 5873 5873 5872 5872 5872 5872 5872 5872 5872 5872 5872 5871 5871 5871 5871 5870 5870 5870 5869 5869 5868 5868
5849 5850 5851 5851 5852 5853 5855 5856 5856 5857 5858 5858 5859 5859 5860 5861 5861 5862 5862 5863 5864 5864 5864 5865 5865 5865 5866 5866 5866 5866 5867 5867 5867 5868 5868 5869 5869 5870 5870 5870 5871 5871 5871 5872 5872 5872 5872 5873 5873 5873 5873 5873 5873 5873 5873 5873 5874 5874 5874 5874 5874 5874 5874 5874 5874 5874 5874 5874 5874 5873 5873 5873 5873 5873 5873 5872 5872 5872 5872 5872 5872 5872 5871 5871 5871 5871 5871 5871 5871 5871 5871 5871 5871 5871 5870 5870 5869 5869 5869 5868 5868 5867 5867
5847 5848 5849 5849 5850 5851 5852 5853 5854 5855 5856 5856 5857 5858 5858 5859 5860 5861 5861 5861 5862 5862 5863 5863 5864 5864 5864 5864 5865 5865 5865 5866 5866 5866 5867 5867 5868 5868 5869 5869 5869 5870 5870 5871 5871 5871 5871 5871 5871 5872 5872 5872 5872 5872 5872 5872 5873 5873 5873 5873 5873 5873 5873 5873 5873 5873 5873 5873 5872 5872 5872 5872 5872 5872 5871 5871 5871 5871 5871 5871 5871 5871 5871 5871 5870 5870 5870 5870 5870 5870 5870 5870 5870 5869 5869 5869 5868 5868 5867 5867 5867 5866 5866
5845 5846 5847 5847 5848 5849 5850 5851 5851 5852 5853 5854 5855 5856 5856 5857 5858 5859 5859 5860 5860 5861 5861 5862 5862 5863 5863 5863 5863 5863 5864 5864 5865 5865 5866 5866 5866 5867 5867 5868 5868 5868 5869 5869 5869 5870 5870 5870 5870 5871 5871 5871 5871 5871 5871 5871 5871 5872 5872 5872 5872 5872 5872 5872 5872 5872 5872 5871 5871 5871 5871 5871 5871 5871 5871 5871 5870 5870 5870 5870 5870 5870 5870 5869 5869 5869 5869 5869 5869 5869 5869 5869 5869 5868 5868 5868 5867 5867 5866 5866 5866 5866 5865
5843 5844 5845 5845 5846 5847 5847 5848 5849 5851 5852 5852 5853 5854 5855 5855 5856 5857 5857 5858 5859 5859 5860 5860 5861 5861 5861 5861 5862 5862 5862 5863 5863 5864 5864 5865 5865 5865 5866 5866 5867 5867 5867 5868 5868 5868 5868 5869 5869 5869 5869 5869 5869 5869 5870 5870 5870 5871 5871 5871 5871 5871 5871 5871 5871 5871 5871 5871 5871 5870 5870 5870 5870 5870 5870 5869 5869 5869 5869 5869 5869 5869 5868 5868 5868 5868 5868 5868 5868 5868 5868 5868 5867 5867 5867 5867 5866 5866 5866 5865 5865 5864 5864
5840 5841 5842 5843 5844 5845 5846 5846 5847 5849 5851 5851 5851 5852 5852 5853 5854 5855 5856 5856 5857 5857 5858 5858 5859 5859 5860 5860 5860 5861 5861 5861 5862 5862 5863 5863 5864 5864 5864 5865 5865 5866 5866 5866 5866 5867 5867 5867 5867 5868 5868 5868 5868 5868 5868 5869 5869 5869 5869 5869 5869 5869 5870 5870 5870 5870 5869 5869 5869 5869 5869 5869 5869 5869 5868 5868 5868 5868 5868 5868 5868 5867 5867 5867 5867 5867 5867 5867 5867 5867 5866 5866 5866 5866 5866 5866 5865 5865 5864 5864 5864 5863 5863
5838 5839 5840 5841 5841 5842 5843 5844 5845 5846 5849 5849 5849 5850 5850 5851 5852 5853 5853 5854 5855 5855 5856 5856 5857 5857 5858 5858 5858 5859 5859 5860 5860 5861 5861 5862 5862 5862 5863 5863 5864 5864 5864 5865 5865 5865 5866 5866 5866 5866 5866 5867 5867 5867 5867 5867 5868 5868 5868 5868 5868 5868 5868 5868 5868 5868 5868 5868 5868 5868 5868 5868 5868 5867 5867 5867 5867 5867 5867 5867 5866 5866 5866 5866 5866 5866 5866 5866 5866 5866 5866 5865 5865 5865 5865 5864 5864 5864 5863 5863 5862 5862 5862
5835 5836 5837 5838 5839 5840 5841 5842 5843 5844 5845 5847 5848 5848 5849 5849 5850 5851 5851 5852 5852 5853 5854 5855 5855 5856 5856 5856 5857 5857 5857 5858 5859 5859 5860 5860 5861 5861 5861 5862 5862 5862 5863 5863 5863 5864 5864 5864 5865 5865 5865 5865 5866 5866 5866 5866 5866 5867 5867 5867 5867 5867 5867 5867 5867 5867 5867 5867 5867 5867 5867 5867 5866 5866 5866 5866 5866 5866 5866 5866 5865 5865 5865 5865 5865 5865 5865 5865 5864 5864 5864 5864 5864 5864 5863 5863 5863 5862 5862 5862 5861 5861 5861
5833 5834 5835 5836 5836 5837 5838 5839 5841 5841 5843 5845 5846 5846 5847 5847 5848 5848 5849 5850 5850 5851 5852 5852 5853 5854 5854 5855 5855 5856 5856 5856 5857 5857 5858 5859 5859 5860 5860 5860 5861 5861 5861 5861 5862 5862 5862 5863 5863 5863 5864 5864 5864 5864 5864 5865 5865 5865 5865 5866 5866 5866 5866 5866 5865 5865 5865 5866 5866 5866 5866 5866 5865 5865 5865 5865 5865 5865 5865 5864 5864 5864 5864 5864 5864 5863 5863 5863 5863 5863 5863 5863 5863 5862 5862 5862 5861 5861 5861 5861 5860 5860 5860
5830 5831 5832 5833 5834 5835 5836 5837 5838 5839 5840 5842 5843 5844 5845 5846 5846 5846 5847 5847 5848 5849 5850 5850 5851 5851 5852 5853 5853 5854 5854 5855 5855 5856 5856 5857 5857 5858 5858 5859 5859 5859 5860 5860 5860 5861 5861 5861 5861 5862 5862 5862 5862 5862 5863 5863 5864 5864 5864 5864 5864 5864 5864 5864 5864 5864 5864 5864 5865 5864 5864 5864 5864 5864 5864 5864 5864 5864 5863 5863 5863 5863 5863 5862 5862 5862 5862 5862 5862 5862 5862 5861 5861 5861 5861 5861 5860 5860 5860 5859 5859 5859 5858
5828 5829 5829 5830 5831 5832 5833 5835 5836 5837 5838 5840 5841 5842 5843 5843 5844 5844 5845 5846 5846 5846 5847 5848 5848 5849 5850 5851 5851 5852 5852 5853 5853 5854 5854 5855 5856 5856 5856 5857 5857 5858 5858 5858 5858 5859 5859 5860 5860 5860 5861 5861 5861 5861 5861 5861 5862 5862 5862 5863 5863 5863 5863 5863 5863 5863 5863 5863 5864 5863 5863 5863 5863 5863 5863 5862 5862 5862 5862 5862 5861 5861 5861 5861 5861 5861 5861 5861 5861 5861 5860 5860 5860 5860 5860 5859 5859 5859 5858 5858 5858 5857 5857
5825 5826 5827 5828 5828 5830 5831 5832 5833 5834 5836 5837 5838 5839 5841 5841 5842 5842 5843 5843 5844 5845 5845 5846 5846 5847 5848 5848 5849 5850 5850 5851 5851 5852 5852 5853 5854 5854 5855 5855 5856 5856 5856 5856 5857 5857 5857 5858 5858 5859 5859 5859 5859 5859 5859 5860 5860 5861 5861 5861 5861 5861 5861 5861 5861 5861 5861 5861 5861 5862 5861 5861 5861 5861 5861 5861 5861 5861 5861 5861 5860 5860 5860 5860 5860 5860 5859 5859 5859 5859 5859 5859 5859 5858 5858 5858 5858 5857 5857 5857 5856 5856 5856
5822 5823 5824 5825 5826 5827 5828 5829 5831 5832 5833 5834 5835 5836 5838 5839 5840 5840 5841 5841 5842 5842 5843 5843 5844 5845 5846 5846 5847 5848 5848 5849 5849 5850 5850 5851 5852 5852 5853 5853 5854 5854 5855 5855 5855 5856 5856 5856 5856 5857 5857 5858 5858 5857 5858 5858 5859 5859 5859 5860 5860 5860 5860 5860 5860 5860 5860 5860 5860 5860 5860 5860 5860 5860 5860 5860 5860 5859 5859 5859 5859 5859 5859 5858 5858 5858 5858 5858 5858 5858 5858 5857 5857 5857 5857 5856 5856 5856 5856 5856 5855 5855 5855
5820 5821 5821 5822 5823 5824 5825 5826 5828 5829 5830 5831 5832 5834 5835 5836 5837 5838 5839 5839 5840 5840 5841 5841 5842 5842 5843 5844 5845 5846 5846 5847 5847 5848 5848 5849 5850 5850 5851 5851 5852 5852 5853 5853 5853 5854 5854 5854 5855 5855 5856 5856 5856 5856 5856 5856 5857 5857 5858 5858 5858 5858 5858 5858 5858 5858 5858 5858 5859 5859 5859 5858 5858 5858 5858 5858 5858 5858 5858 5858 5857 5857 5857 5857 5857 5857 5857 5856 5856 5856 5856 5856 5856 5856 5856 5855 5855 5855 5854 5854 5854 5853 5853
5817 5818 5819 5820 5820 5821 5822 5824 5825 5826 5828 5829 5830 5831 5832 5833 5834 5835 5836 5837 5837 5838 5838 5839 5840 5840 5841 5841 5842 5843 5844 5845 5845 5846 5846 5847 5847 5848 5849 5849 5850 5851 5851 5851 5851 5852 5852 5852 5853 5853 5854 5854 5854 5854 5854 5854 5855 5856 5856 5856 5856 5856 5856 5856 5857 5857 5857 5857 5857 5857 5857 5857 5857 5857 5857 5857 5857 5856 5856 5856 5856 5856 5856 5856 5856 5856 5855 5855 5855 5855 5855 5855 5854 5854 5854 5854 5853 5853 5853 5853 5852 5852 5852
5814 5815 5816 5817 5817 5818 5819 5821 5822 5823 5825 5826 5827 5828 5829 5831 5831 5832 5834 5834 5835 5836 5836 5836 5837 5838 5839 5839 5840 5841 5842 5843 5843 5844 5844 5845 5845 5846 5846 5847 5848 5848 5849 5849 5850 5850 5850 5851 5851 5851 5852 5852 5852 5852 5852 5852 5853 5853 5854 5854 5854 5855 5855 5855 5855 5855 5855 5855 5856 5856 5856 5856 5855 5855 5855 5855 5855 5855 5855 5855 5855 5854 5854 5854 5854 5854 5854 5854 5854 5853 5853 5853 5853 5853 5852 5852 5852 5852 5851 5851 5851 5851 5851
5812 5813 5814 5814 5814 5814 5816 5818 5819 5821 5822 5823 5824 5826 5826 5827 5828 5830 5831 5831 5832 5833 5833 5834 5835 5836 5836 5837 5838 5838 5839 5841 5841 5842 5842 5843 5843 5843 5844 5844 5845 5846 5847 5847 5848 5848 5848 5849 5849 5850 5850 5850 5850 5850 5850 5851 5851 5851 5852 5852 5852 5852 5853 5853 5853 5853 5853 5854 5854 5854 5854 5854 5854 5854 5854 5854 5853 5853 5853 5853 5853 5853 5853 5852 5852 5852 5852 5852 5852 5852 5852 5851 5851 5851 5851 5851 5851 5850 5850 5850 5850 5849 5849
5809 5811 5811 5811 5811 5811 5813 5815 5816 5817 5819 5820 5821 5822 5823 5824 5826 5826 5828 5829 5830 5831 5831 5832 5832 5833 5834 5835 5836 5836 5837 5838 5839 5840 5841 5841 5841 5842 5842 5842 5843 5843 5844 5845 5846 5846 5846 5846 5847 5847 5848 5848 5848 5848 5848 5848 5849 5849 5850 5850 5851 5851 5851 5851 5851 5851 5851 5852 5852 5852 5852 5852 5852 5852 5852 5852 5851 5851 5851 5851 5851 5851 5851 5851 5851 5851 5851 5851 5850 5850 5850 5850 5850 5850 5849 5849 5849 5849 5848 5848 5848 5848 5848
5806 5807 5808 5809 5809 5809 5810 5811 5813 5814 5816 5817 5818 5819 5820 5821 5822 5823 5824 5826 5827 5828 5829 5830 5830 5831 5831 5832 5833 5834 5835 5836 5837 5837 5838 5839 5840 5840 5840 5840 5840 5841 5841 5842 5843 5844 5844 5845 5845 5845 5846 5846 5846 5846 5846 5846 5847 5847 5848 5848 5849 5849 5849 5849 5849 5850 5850 5850 5850 5850 5850 5850 5850 5850 5850 5850 5850 5850 5850 5850 5850 5849 5849 5849 5849 5849 5849 5849 5849 5849 5848 5848 5848 5848 5848 5848 5847 5847 5847 5847 5846 5846 5846
5803 5804 5806 5806 5806 5806 5806 5808 5809 5811 5812 5813 5815 5816 5816 5818 5819 5820 5821 5822 5824 5826 5827 5827 5828 5828 5829 5830 5831 5831 5832 5833 5834 5835 5836 5837 5837 5838 5838 5838 5838 5839 5839 5840 5841 5841 5842 5842 5843 5843 5844 5844 5844 5845 5844 5845 5845 5845 5846 5846 5846 5847 5847 5847 5847 5847 5848 5848 5848 5848 5848 5848 5848 5848 5848 5848 5848 5848 5848 5848 5848 5848 5848 5848 5847 5847 5847 5847 5847 5847 5847 5846 5846 5846 5846 5846 5846 5846 5845 5845 5845 5845 5845
5800 5801 5803 5803 5804 5804 5804 5804 5805 5806 5808 5810 5811 5812 5813 5814 5815 5817 5818 5819 5821 5823 5824 5825 5826 5826 5826 5827 5828 5829 5830 5831 5831 5832 5833 5834 5835 5836 5836 5836 5836 5836 5837 5837 5838 5839 5839 5840 5840 5841 5841 5842 5842 5842 5842 5842 5842 5843 5843 5844 5844 5845 5845 5845 5845 5846 5846 5846 5846 5846 5846 5846 5846 5847 5847 5846 5846 5846 5846 5846 5846 5846 5846 5846 5846 5846 5846 5845 5845 5845 5845 5845 5845 5845 5844 5844 5844 5844 5844 5843 5843 5843 5843
5798 5799 5800 5800 5801 5801 5802 5801 5802 5803 5804 5806 5807 5808 5809 5811 5812 5813 5815 5816 5818 5819 5821 5822 5823 5823 5824 5825 5826 5826 5827 5828 5829 5830 5831 5831 5832 5833 5834 5834 5834 5834 5835 5835 5836 5836 5837 5837 5838 5838 5839 5839 5840 5840 5840 5840 5841 5841 5841 5841 5842 5842 5843 5843 5843 5843 5844 5844 5844 5844 5845 5845 5845 5845 5845 5845 5844 5844 5844 5844 5844 5844 5844 5844 5844 5844 5844 5844 5844 5844 5844 5843 5843 5843 5843 5843 5842 5842 5842 5842 5841 5841 5841
5796 5796 5796 5797 5797 5798 5799 5799 5800 5800 5801 5802 5803 5804 5806 5807 5808 5810 5811 5813 5814 5816 5818 5819 5821 5821 5821 5822 5823 5824 5825 5826 5826 5827 5827 5828 5829 5830 5831 5831 5831 5832 5832 5832 5833 5833 5834 5835 5835 5836 5836 5837 5837 5838 5838 5838 5838 5838 5839 5839 5840 5840 5841 5841 5841 5841 5841 5842 5842 5842 5842 5843 5843 5843 5843 5842 5842 5842 5842 5842 5842 5842 5842 5842 5842 5842 5842 5842 5842 5842 5842 5841 5841 5841 5841 5841 5841 5841 5840 5840 5840 5840 5840
5796 5792 5793 5794 5795 5795 5796 5797 5798 5799 5800 5800 5800 5801 5802 5804 5805 5806 5808 5809 5811 5812 5813 5816 5817 5818 5818 5819 5820 5821 5821 5822 5823 5824 5825 5825 5826 5826 5827 5828 5829 5829 5830 5830 5831 5831 5831 5832 5832 5833 5834 5834 5835 5836 5836 5836 5836 5836 5836 5837 5837 5838 5838 5838 5839 5839 5839 5840 5840 5840 5841 5841 5841 5841 5841 5841 5841 5841 5841 5841 5841 5841 5841 5840 5840 5840 5840 5840 5840 5840 5840 5840 5840 5840 5839 5839 5839 5839 5839 5838 5838 5838 5838
5795 5791 5789 5791 5793 5793 5794 5794 5795 5797 5798 5798 5797 5797 5799 5800 5801 5803 5804 5806 5807 5808 5810 5811 5813 5815 5815 5816 5817 5818 5819 5820 5821 5821 5821 5822 5822 5823 5824 5825 5826 5826 5827 5827 5828 5828 5829 5829 5830 5830 5831 5831 5832 5833 5833 5834 5834 5834 5834 5835 5835 5835 5836 5836 5836 5837 5837 5837 5837 5838 5838 5838 5839 5839 5839 5838 5838 5838 5838 5839 5839 5838 5838 5838 5838 5838 5838 5838 5838 5838 5838 5838 5838 5838 5837 5837 5837 5837 5837 5837 5836 5836 5836
5788 5788 5788 5789 5790 5791 5791 5791 5792 5792 5793 5795 5795 5794 5795 5796 5798 5799 5801 5802 5803 5804 5806 5807 5809 5810 5811 5813 5814 5815 5816 5817 5817 5818 5819 5819 5819 5820 5821 5821 5822 5823 5824 5824 5825 5826 5826 5827 5827 5827 5828 5829 5829 5830 5831 5831 5831 5832 5832 5832 5832 5833 5833 5834 5834 5834 5835 5835 5835 5836 5836 5836 5836 5836 5836 5836 5836 5836 5836 5836 5836 5836 5836 5836 5836 5836 5836 5836 5836 5836 5836 5836 5836 5836 5836 5836 5836 5835 5835 5835 5835 5834 5834
5781 5783 5785 5786 5787 5787 5788 5789 5789 5789 5790 5791 5792 5793 5793 5793 5794 5796 5797 5798 5799 5800 5801 5803 5804 5806 5807 5809 5811 5812 5813 5814 5815 5815 5816 5816 5816 5817 5817 5818 5818 5819 5820 5821 5822 5823 5824 5824 5825 5825 5825 5826 5826 5827 5828 5829 5829 5829 5829 5830 5830 5830 5831 5831 5832 5832 5832 5833 5833 5833 5834 5834 5834 5834 5834 5835 5835 5835 5835 5835 5835 5834 5835 5834 5834 5834 5834 5834 5834 5834 5834 5834 5834 5834 5834 5834 5834 5833 5833 5833 5833 5832 5832
5779 5780 5781 5783 5784 5785 5785 5786 5787 5787 5787 5787 5788 5790 5792 5792 5791 5791 5793 5794 5796 5796 5797 5799 5800 5802 5803 5805 5807 5808 5809 5810 5811 5812 5813 5813 5813 5813 5814 5815 5815 5815 5816 5818 5819 5820 5821 5821 5822 5822 5822 5823 5824 5825 5825 5826 5826 5827 5827 5827 5827 5827 5828 5829 5829 5830 5830 5830 5831 5831 5831 5831 5832 5832 5832 5832 5833 5832 5833 5833 5832 5832 5832 5832 5832 5832 5832 5832 5832 5832 5832 5832 5832 5832 5832 5832 5831 5831 5831 5831 5831 5831 5830
5776 5777 5778 5779 5781 5782 5783 5783 5784 5784 5785 5785 5785 5787 5790 5791 5791 5791 5790 5791 5792 5793 5794 5795 5796 5798 5800 5801 5802 5804 5805 5806 5807 5808 5809 5810 5810 5810 5811 5811 5812 5812 5811 5814 5816 5817 5818 5818 5819 5819 5820 5820 5821 5822 5822 5823 5824 5824 5825 5825 5825 5825 5825 5826 5826 5827 5827 5828 5828 5828 5829 5829 5829 5830 5830 5830 5830 5831 5831 5831 5831 5830 5830 5830 5830 5830 5830 5830 5830 5830 5830 5830 5830 5830 5830 5830 5830 5829 5829 5829 5829 5829 5828
5773 5774 5776 5777 5778 5780 5781 5780 5780 5781 5781 5781 5782 5783 5784 5787 5790 5790 5788 5788 5789 5789 5790 5791 5792 5794 5795 5796 5797 5799 5801 5802 5803 5804 5805 5806 5807 5807 5808 5808 5809 5809 5808 5810 5812 5813 5814 5815 5816 5816 5817 5818 5818 5819 5819 5820 5821 5821 5822 5822 5822 5822 5822 5823 5823 5824 5825 5825 5825 5826 5826 5826 5827 5827 5827 5827 5827 5828 5827 5828 5828 5828 5828 5828 5828 5828 5828 5828 5828 5828 5828 5828 5828 5828 5828 5827 5827 5827 5827 5827 5827 5826 5826
5770 5771 5772 5774 5775 5776 5777 5777 5777 5777 5778 5779 5780 5781 5781 5783 5786 5786 5785 5786 5786 5786 5788 5788 5789 5789 5789 5791 5792 5794 5796 5797 5799 5800 5801 5802 5803 5804 5805 5805 5806 5806 5806 5807 5808 5809 5811 5811 5812 5813 5814 5815 5815 5816 5816 5817 5817 5818 5819 5819 5819 5820 5820 5820 5820 5821 5821 5822 5822 5823 5823 5823 5824 5824 5825 5825 5825 5825 5825 5825 5825 5826 5826 5826 5826 5826 5826 5825 5826 5825 5825 5825 5825 5826 5826 5825 5825 5825 5825 5825 5825 5824 5824
5766 5768 5769 5771 5772 5773 5773 5774 5775 5776 5776 5776 5777 5778 5779 5780 5781 5782 5784 5784 5784 5784 5785 5785 5786 5786 5786 5786 5787 5789 5791 5792 5794 5796 5797 5798 5800 5801 5802 5802 5803 5803 5804 5804 5805 5806 5806 5807 5808 5810 5811 5811 5812 5812 5813 5813 5814 5815 5816 5816 5817 5817 5817 5817 5817 5818 5818 5819 5820 5820 5820 5821 5821 5821 5822 5822 5822 5822 5823 5823 5823 5823 5823 5823 5823 5823 5823 5823 5823 5823 5823 5823 5823 5823 5823 5823 5823 5823 5822 5822 5822 5822 5822
5763 5765 5766 5767 5769 5770 5770 5771 5772 5773 5773 5774 5775 5776 5776 5777 5779 5780 5782 5782 5781 5781 5782 5782 5783 5784 5784 5784 5784 5785 5786 5788 5790 5791 5793 5795 5796 5798 5799 5800 5800 5801 5801 5802 5802 5802 5802 5803 5805 5806 5806 5808 5808 5809 5810 5810 5811 5811 5812 5813 5814 5814 5814 5814 5814 5815 5815 5816 5816 5817 5817 5817 5818 5818 5819 5819 5820 5820 5820 5820 5820 5820 5821 5821 5821 5821 5821 5821 5821 5821 5821 5821 5821 5821 5821 5821 5821 5820 5820 5820 5820 5820 5820
5760 5761 5763 5764 5765 5766 5767 5768 5769 5770 5771 5771 5772 5774 5774 5776 5777 5779 5780 5781 5780 5779 5780 5781 5781 5781 5782 5782 5782 5782 5783 5784 5785 5787 5789 5790 5792 5793 5795 5796 5797 5798 5799 5799 5799 5799 5799 5799 5801 5801 5803 5804 5805 5806 5806 5807 5807 5808 5809 5810 5810 5811 5811 5811 5811 5811 5812 5812 5813 5813 5814 5814 5815 5815 5816 5816 5817 5817 5817 5817 5817 5818 5818 5818 5818 5818 5818 5818 5818 5818 5818 5819 5819 5819 5818 5818 5818 5818 5818 5817 5818 5818 5818
5757 5758 5759 5761 5762 5763 5764 5765 5766 5766 5767 5768 5770 5771 5771 5772 5773 5775 5777 5779 5779 5778 5778 5779 5779 5779 5779 5780 5780 5781 5781 5781 5781 5783 5784 5785 5787 5789 5791 5792 5794 5795 5796 5796 5796 5796 5796 5796 5797 5798 5799 5800 5801 5802 5803 5803 5804 5805 5805 5806 5807 5807 5808 5808 5808 5809 5809 5809 5809 5810 5810 5811 5811 5812 5812 5813 5814 5814 5814 5814 5814 5815 5815 5815 5815 5815 5815 5815 5816 5816 5816 5816 5816 5816 5816 5816 5815 5815 5815 5815 5816 5816 5816
5753 5755 5756 5757 5758 5759 5760 5761 5762 5763 5764 5766 5766 5767 5768 5768 5769 5770 5772 5774 5776 5777 5776 5776 5776 5776 5777 5777 5778 5779 5779 5778 5778 5779 5780 5781 5782 5784 5786 5788 5790 5791 5792 5793 5794 5794 5793 5793 5793 5794 5795 5796 5797 5798 5799 5800 5801 5801 5802 5802 5803 5804 5805 5805 5805 5806 5806 5806 5806 5806 5807 5807 5808 5809 5809 5810 5810 5811 5811 5811 5811 5811 5812 5812 5812 5812 5812 5813 5813 5813 5812 5813 5813 5814 5814 5814 5813 5813 5813 5813 5813 5813 5813
5749 5751 5752 5753 5755 5756 5757 5757 5758 5759 5761 5762 5763 5764 5764 5765 5766 5767 5768 5768 5770 5772 5773 5773 5773 5774 5775 5774 5774 5775 5776 5776 5777 5776 5775 5776 5778 5780 5781 5783 5785 5786 5787 5789 5790 5790 5790 5791 5791 5791 5792 5793 5794 5795 5796 5797 5798 5798 5798 5799 5799 5800 5801 5801 5802 5802 5802 5803 5803 5803 5803 5804 5805 5805 5806 5806 5807 5807 5808 5808 5808 5808 5809 5809 5809 5809 5810 5810 5810 5810 5810 5810 5810 5810 5811 5811 5811 5811 5811 5811 5811 5811 5811
5745 5746 5747 5749 5751 5752 5753 5754 5755 5756 5757 5758 5759 5760 5761 5762 5763 5763 5764 5765 5766 5766 5768 5769 5769 5770 5771 5771 5771 5771 5772 5773 5773 5773 5772 5773 5775 5777 5778 5779 5781 5781 5783 5784 5785 5786 5786 5787 5788 5788 5789 5790 5790 5791 5792 5793 5794 5795 5795 5795 5796 5796 5797 5797 5798 5798 5799 5800 5800 5800 5800 5801 5801 5801 5802 5803 5803 5804 5804 5805 5805 5805 5806 5806 5806 5806 5807 5807 5807 5807 5807 5807 5807 5807 5807 5808 5808 5809 5809 5809 5808 5808 5808
5741 5742 5744 5746 5747 5748 5750 5751 5751 5752 5753 5755 5756 5757 5758 5759 5760 5760 5761 5762 5762 5763 5764 5765 5766 5766 5767 5768 5768 5769 5769 5770 5770 5769 5770 5771 5772 5774 5775 5776 5776 5777 5779 5780 5780 5780 5782 5783 5784 5786 5786 5787 5787 5787 5788 5789 5790 5790 5791 5791 5792 5792 5793 5793 5794 5794 5795 5796 5797 5797 5797 5797 5797 5798 5799 5799 5800 5800 5801 5801 5801 5802 5802 5802 5803 5803 5804 5804 5804 5804 5804 5804 5804 5804 5805 5805 5805 5806 5806 5806 5806 5806 5806
5736 5738 5740 5742 5743 5744 5746 5746 5747 5748 5750 5751 5752 5753 5755 5756 5757 5757 5758 5759 5760 5760 5761 5762 5762 5763 5762 5763 5765 5765 5766 5767 5767 5767 5767 5768 5769 5770 5771 5772 5772 5773 5774 5775 5774 5775 5777 5779 5781 5782 5783 5784 5783 5783 5784 5784 5785 5786 5786 5787 5788 5788 5789 5789 5790 5791 5791 5792 5793 5794 5794 5794 5794 5794 5795 5795 5796 5796 5796 5797 5798 5798 5799 5799 5800 5800 5801 5801 5801 5801 5801 5801 5801 5801 5801 5802 5802 5802 5802 5804 5804 5804 5804
5733 5734 5735 5738 5740 5740 5741 5742 5743 5745 5746 5747 5748 5750 5751 5752 5754 5755 5755 5756 5756 5757 5758 5758 5759 5760 5760 5760 5761 5761 5762 5763 5764 5764 5765 5765 5766 5766 5766 5768 5769 5770 5770 5771 5771 5771 5773 5776 5777 5778 5779 5780 5780 5779 5779 5779 5780 5781 5781 5782 5783 5784 5785 5785 5786 5786 5787 5789 5790 5790 5790 5791 5791 5791 5791 5791 5792 5792 5792 5793 5794 5794 5795 5796 5796 5797 5797 5797 5798 5798 5798 5798 5798 5798 5798 5799 5799 5799 5799 5800 5801 5801 5801
5729 5730 5731 5733 5735 5736 5736 5738 5740 5741 5742 5744 5745 5746 5747 5749 5750 5751 5752 5753 5753 5754 5755 5755 5756 5756 5757 5757 5758 5758 5759 5760 5761 5762 5762 5762 5763 5764 5764 5765 5766 5766 5766 5766 5767 5769 5771 5772 5773 5773 5774 5776 5776 5776 5776 5776 5776 5776 5776 5777 5778 5779 5781 5781 5781 5782 5783 5784 5785 5786 5786 5787 5787 5787 5787 5787 5787 5788 5788 5789 5789 5790 5791 5792 5793 5793 5794 5794 5794 5795 5795 5795 5795 5795 5795 5795 5796 5796 5796 5797 5797 5798 5798
5725 5726 5727 5728 5730 5731 5733 5734 5736 5737 5739 5740 5741 5743 5744 5745 5746 5747 5749 5750 5750 5751 5751 5752 5753 5753 5754 5755 5755 5755 5756 5756 5758 5759 5759 5759 5760 5761 5761 5761 5762 5762 5763 5763 5764 5766 5767 5768 5769 5769 5770 5772 5773 5772 5773 5773 5773 5772 5772 5772 5773 5774 5776 5777 5777 5778 5779 5780 5781 5782 5782 5783 5783 5783 5783 5783 5783 5783 5784 5784 5785 5786 5787 5788 5789 5790 5791 5791 5791 5791 5791 5791 5792 5792 5792 5792 5792 5792 5793 5794 5794 5795 5795
5721 5722 5723 5725 5726 5727 5729 5731 5732 5733 5735 5736 5738 5739 5740 5741 5743 5744 5745 5746 5747 5748 5748 5749 5749 5750 5751 5751 5751 5752 5752 5753 5755 5756 5756 5756 5757 5757 5759 5759 5759 5760 5760 5761 5762 5763 5764 5764 5765 5765 5766 5768 5769 5770 5771 5770 5770 5770 5769 5769 5769 5769 5771 5772 5773 5773 5774 5775 5776 5777 5778 5779 5779 5779 5779 5779 5779 5779 5779 5780 5781 5782 5783 5784 5785 5786 5787 5787 5787 5788 5788 5788 5788 5789 5789 5788 5789 5789 5789 5790 5791 5791 5791
5717 5719 5720 5721 5722 5723 5724 5725 5727 5730 5731 5732 5734 5735 5736 5738 5739 5740 5741 5742 5743 5744 5745 5745 5746 5747 5747 5748 5748 5749 5749 5750 5752 5753 5753 5754 5754 5755 5756 5756 5756 5757 5757 5758 5759 5759 5759 5760 5761 5763 5764 5763 5764 5766 5767 5767 5767 5767 5766 5766 5765 5765 5765 5766 5767 5768 5769 5770 5771 5773 5774 5774 5775 5776 5775 5776 5776 5776 5776 5776 5776 5778 5779 5781 5781 5782 5783 5784 5784 5784 5784 5785 5785 5785 5785 5785 5785 5785 5786 5786 5787 5788 5788
5713 5715 5716 5717 5718 5719 5720 5722 5723 5725 5726 5728 5730 5731 5733 5734 5735 5736 5738 5739 5739 5740 5741 5742 5742 5743 5744 5745 5745 5746 5746 5747 5749 5749 5750 5750 5751 5752 5753 5753 5753 5754 5754 5755 5756 5756 5756 5756 5757 5759 5759 5759 5760 5761 5762 5763 5764 5764 5763 5762 5761 5761 5760 5761 5762 5763 5764 5765 5766 5768 5769 5770 5771 5771 5772 5772 5773 5773 5773 5773 5773 5774 5776 5777 5778 5779 5779 5780 5780 5781 5781 5781 5781 5781 5781 5781 5781 5781 5782 5782 5783 5784 5784
5709 5710 5711 5713 5714 5715 5717 5718 5719 5721 5722 5723 5725 5726 5727 5730 5731 5733 5734 5734 5735 5736 5737 5738 5739 5740 5741 5741 5742 5743 5743 5744 5745 5746 5746 5747 5748 5749 5750 5750 5750 5750 5751 5751 5752 5752 5753 5754 5754 5755 5755 5755 5756 5756 5757 5759 5760 5759 5758 5758 5757 5756 5756 5756 5758 5759 5760 5761 5762 5763 5764 5766 5767 5768 5769 5770 5770 5771 5770 5770 5770 5771 5772 5773 5774 5775 5776 5776 5776 5776 5776 5777 5777 5777 5777 5777 5777 5777 5778 5778 5779 5780 5781